This is the latest recevied weather packets stored in our database for station/object K3JSE-4. If no packets are shown the sender has not sent any weather packets the latest 10 day(s).
| Time | Temp. | Humidity | Pressure | Rain* | Wind** | Luminosity | Snow |
|---|---|---|---|---|---|---|---|
| 1777589143 | 13.33° C | 64% | 1009.9 hPa | 0 mm | - | - | - |
| 1777588843 | 13.33° C | 63% | 1010 hPa | 0 mm | - | - | - |
| 1777588543 | 13.33° C | 62% | 1009.8 hPa | 0 mm | - | - | - |
| 1777588243 | 13.89° C | 62% | 1009.7 hPa | 0 mm | - | - | - |
| 1777587943 | 13.89° C | 62% | 1009.7 hPa | 0 mm | - | - | - |
| 1777587643 | 13.89° C | 62% | 1009.6 hPa | 0 mm | - | - | - |
| 1777587343 | 13.89° C | 62% | 1009.5 hPa | 0 mm | - | - | - |
| 1777587043 | 13.89° C | 61% | 1009.6 hPa | 0 mm | - | - | - |
| 1777586743 | 14.44° C | 61% | 1009.5 hPa | 0 mm | - | - | - |
| 1777586443 | 14.44° C | 60% | 1009.3 hPa | 0 mm | - | - | - |
| 1777586143 | 14.44° C | 61% | 1009.3 hPa | 0 mm | - | - | - |
| 1777585843 | 15° C | 57% | 1009.1 hPa | 0 mm | - | - | - |
| 1777585543 | 15.56° C | 56% | 1008.8 hPa | 0 mm | - | - | - |
| 1777585243 | 15.56° C | 56% | 1008.8 hPa | 0 mm | - | - | - |
| 1777584943 | 15.56° C | 54% | 1008.8 hPa | 0 mm | - | - | - |
| 1777584643 | 15.56° C | 55% | 1008.7 hPa | 0 mm | - | - | - |
| 1777584343 | 15.56° C | 57% | 1008.7 hPa | 0 mm | - | - | - |
| 1777584043 | 15.56° C | 56% | 1008.6 hPa | 0 mm | - | - | - |
| 1777583743 | 15.56° C | 55% | 1008.6 hPa | 0 mm | - | - | - |
| 1777583443 | 15.56° C | 55% | 1008.6 hPa | 0 mm | - | - | - |
| 1777583143 | 15.56° C | 54% | 1008.6 hPa | 0 mm | - | - | - |
| 1777582843 | 15.56° C | 54% | 1008.5 hPa | 0 mm | - | - | - |
| 1777582543 | 15.56° C | 53% | 1008.5 hPa | 0 mm | - | - | - |
| 1777582243 | 15.56° C | 54% | 1008.3 hPa | 0 mm | - | - | - |
| 1777581943 | 16.11° C | 53% | 1008.2 hPa | 0 mm | - | - | - |
* Rain latest hour (hover to see other rain measurements)
** Current wind speed in m/s (hover to see current wind gust speed)